DW2465 Weather Reports


time (UTC)temp
C
wind
direction
speed
KPH
gust
KPH
rain 1hr
cm
rain 24hr
cm
rain mn
cm
humidity
%
barometer
mb
20260831134526 22 263 0.0 0.0 0.00 0.00 0.00 93 1007.2
20260831133022 22 257 0.0 0.0 0.00 0.00 0.00 94 1007.0
20260831131522 22 259 0.0 0.0 0.00 0.00 0.00 95 1007.0
20260831130019 21 260 0.0 0.0 0.00 0.00 0.00 95 1006.8
20260831124517 21 225 0.0 0.0 0.00 0.00 0.00 95 1006.6
20260831123013 21 227 0.0 0.0 0.00 0.00 0.00 95 1006.3
20260831121512 21 226 0.0 0.0 0.00 0.00 0.00 95 1006.1
20260831120012 21 229 0.0 0.0 0.00 0.00 0.00 95 1006.0
20260831114511 21 229 0.0 0.0 0.00 0.00 0.00 95 1005.7
20260831113009 21 228 0.0 0.0 0.00 0.00 0.00 95 1005.8
20260831111507 21 221 0.0 0.0 0.00 0.00 0.00 94 1005.7
20260831110005 21 221 0.0 0.0 0.00 0.00 0.00 94 1005.2
20260831104512 21 220 0.0 0.0 0.00 0.00 0.00 94 1005.1
20260831103001 21 223 0.0 0.0 0.00 0.00 0.00 94 1005.1
20260831101602 21 213 0.0 0.0 0.00 0.00 0.00 94 1005.2
20260831100119 21 194 0.0 0.0 0.00 0.00 0.00 94 1005.3
20260831094559 21 204 0.0 0.0 0.00 0.00 0.00 94 1005.1
20260831093056 21 219 0.0 0.0 0.00 0.00 0.00 93 1005.0
20260831091600 21 202 0.0 0.0 0.00 0.00 0.00 93 1005.0
20260831090054 21 215 0.0 0.0 0.00 0.00 0.00 93 1005.0
20260831084631 21 171 0.0 0.0 0.00 0.00 0.00 93 1005.0
20260831083053 21 192 0.0 0.0 0.00 0.00 0.00 93 1004.9
20260831081549 22 214 0.0 0.0 0.00 0.00 0.00 92 1005.0
20260831080057 22 201 0.0 0.0 0.00 0.00 0.00 92 1004.8
20260831074558 22 178 0.0 0.0 0.00 0.00 0.00 92 1004.7
20260831073044 22 180 0.0 0.0 0.00 0.00 0.00 91 1004.8
20260831071549 22 186 0.0 0.0 0.00 0.00 0.00 91 1004.8
20260831070041 22 109 0.0 0.0 0.00 0.00 0.00 91 1004.9
20260831064540 22 148 0.0 0.0 0.00 0.00 0.00 91 1005.0
20260831063013 22 146 0.0 0.0 0.00 0.00 0.00 90 1005.0
20260831061506 22 132 0.0 0.0 0.00 0.00 0.00 90 1005.3
20260831060004 22 154 0.0 0.0 0.00 0.00 0.00 90 1005.4
20260831054501 22 131 0.0 0.0 0.00 0.00 0.00 90 1005.6
20260831053119 22 123 0.0 0.0 0.00 0.00 0.00 90 1005.6
20260831051557 22 134 0.0 0.0 0.00 0.00 0.00 89 1005.6
20260831050109 22 127 0.0 0.0 0.00 0.00 0.00 88 1006.1
20260831044524 22 147 0.0 0.0 0.00 0.00 0.00 88 1006.3
20260831043034 23 131 0.0 0.0 0.00 0.00 0.00 87 1006.4
20260831041521 23 163 0.0 0.0 0.00 0.00 0.00 87 1006.5
20260831040021 23 144 0.0 0.0 0.00 0.00 0.00 86 1006.3
20260831034521 23 144 0.0 0.0 0.00 0.00 0.00 85 1006.2
20260831033021 23 155 0.0 0.0 0.00 0.00 0.00 84 1006.3
20260831031517 23 173 0.0 0.0 0.00 0.00 0.00 83 1006.2
20260831030016 24 140 0.0 0.0 0.00 0.00 0.00 82 1006.2
20260831024523 24 188 0.0 0.0 0.00 0.00 0.00 81 1005.9
20260831023015 25 126 0.0 0.0 0.00 0.00 0.00 80 1005.8
20260831021513 25 161 0.0 0.0 0.00 0.00 0.00 78 1006.0
20260831020014 25 129 0.0 0.0 0.00 0.00 0.00 77 1005.9
20260831014511 26 133 0.0 0.0 0.00 0.00 0.00 75 1005.9
20260831013022 26 161 0.0 0.0 0.00 0.00 0.00 74 1005.9
20260831011516 26 159 0.0 0.0 0.00 0.00 0.00 74 1005.7
20260831010013 27 144 0.0 0.0 0.00 0.00 0.00 73 1005.7
20260831004510 27 151 0.0 0.0 0.00 0.00 0.00 71 1005.4
20260831003010 27 159 0.0 0.0 0.00 0.00 0.00 70 1005.5
20260831001512 28 140 0.0 0.0 0.00 0.00 0.00 69 1005.3
20260831000003 28 148 0.0 0.0 0.00 0.00 0.00 71 1005.2
20260830234501 28 127 0.0 0.0 0.00 0.00 0.00 70 1005.1
20260830233002 28 124 0.0 0.0 0.00 0.00 0.00 72 1004.8
20260830231605 28 103 0.0 0.0 0.00 0.00 0.00 72 1005.0
20260830230057 28 77 0.0 0.0 0.00 0.00 0.00 72 1004.9
20260830224607 28 105 0.0 0.0 0.00 0.00 0.00 71 1005.1
20260830223056 28 71 0.0 0.0 0.00 0.00 0.00 72 1005.0
20260830221524 28 97 0.0 0.0 0.00 0.00 0.00 72 1005.0
20260830220022 27 92 0.0 0.0 0.00 0.00 0.00 73 1005.1
20260830214551 27 123 0.0 0.0 0.00 0.00 0.00 73 1005.1
20260830213049 27 103 0.0 0.0 0.00 0.00 0.00 72 1005.4
20260830211546 27 76 0.0 0.0 0.00 0.00 0.00 73 1005.4
20260830210056 27 117 0.0 0.0 0.00 0.00 0.00 73 1005.7
20260830204547 27 130 0.0 0.0 0.00 0.00 0.00 72 1005.7
20260830203043 28 117 0.0 0.0 0.00 0.00 0.00 70 1006.0
20260830201539 27 119 0.0 0.0 0.00 0.00 0.00 72 1006.0
20260830200048 27 88 0.0 0.0 0.00 0.00 0.00 71 1006.0
20260830194543 27 49 0.0 0.0 0.00 0.00 0.00 72 1005.9
20260830193032 27 80 0.0 0.0 0.00 0.00 0.00 73 1006.2
20260830191529 27 345 0.0 0.0 0.00 0.00 0.00 72 1006.0
20260830190032 27 355 0.0 0.0 0.00 0.00 0.00 75 1006.2
20260830184524 26 84 0.0 0.0 0.00 0.00 0.00 77 1006.7
20260830183022 26 103 0.0 0.0 0.00 0.00 0.00 76 1007.1
20260830181517 25 86 0.0 0.0 0.00 0.00 0.00 77 1007.0
20260830180017 24 80 0.0 0.0 0.00 0.00 0.00 81 1006.9
20260830174510 24 92 0.0 0.0 0.00 0.00 0.00 82 1007.0
20260830173009 23 98 0.0 0.0 0.00 0.00 0.00 84 1007.3
20260830171505 23 78 0.0 0.0 0.00 0.00 0.00 83 1007.6
20260830170010 23 13 0.0 0.0 0.00 0.00 0.00 82 1007.5
20260830164509 23 141 0.0 0.0 0.00 0.00 0.00 83 1007.6
20260830163002 23 75 0.0 0.0 0.00 0.00 0.00 83 1007.3
20260830161624 23 88 0.0 0.0 0.00 0.00 0.00 84 1006.9
20260830160054 22 62 0.0 0.0 0.00 0.00 0.00 86 1006.7
20260830154553 22 68 0.0 0.0 0.00 0.00 0.00 87 1006.7
20260830153053 22 69 0.0 0.0 0.00 0.00 0.00 86 1006.9
20260830151551 22 57 0.0 0.0 0.00 0.00 0.00 86 1006.9
20260830150106 22 107 0.0 0.0 0.00 0.00 0.00 86 1007.0
20260830144545 21 116 0.0 0.0 0.00 0.00 0.00 87 1007.0
20260830143042 21 44 0.0 0.0 0.00 0.00 0.00 89 1006.6
20260830141543 21 106 0.0 0.0 0.00 0.00 0.00 90 1006.8
20260830140011 21 66 0.0 0.0 0.00 0.00 0.00 90 1007.1